This demonstration page uses our WeatherBlox Daily Observations layout. Learn more.

Left ArrowRight Arrow

Hourly Observations for August 15, 2022

Temp ( °F °C ) Dew Point ( °F °C ) Humidity (%) Winds ( mph kmh ) Pressure ( in mb ) Visibility ( mi km ) Precip ( " mm )
12:53 am 00:53 Clear 63 17.2 42 5.6 46 46 ENE 5 7 29.97 1015 10 16 0.00 0.00
1:53 am 01:53 Clear 65 18.3 43 6.1 45 45 ENE 8 13 29.97 1015 10 16 0.00 0.00
2:53 am 02:53 Clear 62 16.7 44 6.7 52 52 ENE 8 13 29.98 1015 10 16 0.00 0.00
3:53 am 03:53 Clear 62 16.7 44 6.7 52 52 NE 7 11 29.98 1015 10 16 0.00 0.00
4:53 am 04:53 Clear 63 17.2 44 6.7 50 50 NE 10 17 29.97 1015 10 16 0.00 0.00
5:53 am 05:53 Clear 61 16.1 44 6.7 54 54 NE 8 13 29.98 1015 10 16 0.00 0.00
6:53 am 06:53 Sunny 60 15.6 42 5.6 51 51 Calm 30.01 1016 10 16 0.00 0.00
7:53 am 07:53 Sunny 64 17.8 43 6.1 46 46 WSW 5 7 30.02 1017 10 16 0.00 0.00
8:53 am 08:53 Sunny 69 20.6 43 6.1 39 39 Calm 30.03 1017 10 16 0.00 0.00
9:53 am 09:53 Sunny 75 23.9 43 6.1 32 32 ESE 3 6 30.02 1017 10 16 0.00 0.00
10:53 am 10:53 Sunny 81 27.2 43 6.1 26 26 N 7 11 30.01 1016 10 16 0.00 0.00
11:53 am 11:53 Sunny 84 28.9 43 6.1 24 24 VRB 3 6 30.00 1016 10 16 0.00 0.00
12:53 pm 12:53 Sunny 89 31.7 44 6.7 21 21 ENE 6 9 29.98 1015 10 16 0.00 0.00
1:53 pm 13:53 Sunny 91 32.8 42 5.6 18 18 NE 5 7 29.96 1014 10 16 0.00 0.00
2:53 pm 14:53 Sunny 93 33.9 41 5 16 16 ENE 18 30 29.94 1014 10 16 0.00 0.00
3:53 pm 15:53 Sunny 94 34.4 40 4.4 15 15 NE 18 30 29.92 1013 10 16 0.00 0.00
4:53 pm 16:53 Sunny 93 33.9 40 4.4 16 16 ENE 21 33 29.91 1013 10 16 0.00 0.00
5:53 pm 17:53 Sunny 93 33.9 41 5 16 16 ENE 20 31 29.91 1013 10 16 0.00 0.00
6:53 pm 18:53 Sunny 91 32.8 41 5 18 18 ENE 16 26 29.90 1013 10 16 0.00 0.00
7:53 pm 19:53 Sunny 87 30.6 41 5 20 20 E 15 24 29.91 1013 10 16 0.00 0.00
8:53 pm 20:53 Clear 84 28.9 40 4.4 21 21 E 13 20 29.92 1013 10 16 0.00 0.00
9:33 pm 21:33 Partly Cloudy with Thunderstorms 77 25 51 10.6 40 40 E 12 19 29.85 1011 10 16 0.01 0.25
9:53 pm 21:53 Mostly Clear with Nearby Thunderstorms 77 25 48 8.9 36 36 E 16 26 29.93 1014 10 16 0.01 0.25
10:03 pm 22:03 Mostly Clear 76 24.4 49 9.4 39 39 E 14 22 29.84 1011 10 16 0.00 0.00
10:53 pm 22:53 Clear 78 25.6 47 8.3 33 33 SE 12 19 29.92 1013 10 16 0.00 0.00
11:53 pm 23:53 Clear 74 23.3 47 8.3 38 38 Calm 29.93 1014 10 16 0.00 0.00

Powered by AerisWeather